Time,TemperatureF,DewpointF,PressureIn,WindDirection,WindDirectionDegrees,WindSpeedMPH,WindSpeedGustMPH,Humidity,HourlyPrecipIn,Conditions,Clouds,dailyrainin,SoftwareType,DateUTC
2013-02-18 00:00:00,17.2,13.5,29.95,SW,234,0.0,3.6,85,0.00,,CLR,0.00,VWS V14.01,2013-02-18 07:00:00,
2013-02-18 00:05:00,17.1,13.1,29.95,West,279,3.6,4.0,84,0.00,,CLR,0.00,VWS V14.01,2013-02-18 07:05:00,
2013-02-18 00:10:00,17.6,13.1,29.95,WNW,284,2.7,4.0,82,0.00,,CLR,0.00,VWS V14.01,2013-02-18 07:10:00,
2013-02-18 00:15:00,17.4,12.3,29.95,WNW,285,2.7,4.0,80,0.00,,CLR,0.00,VWS V14.01,2013-02-18 07:15:00,
2013-02-18 00:20:00,17.6,11.9,29.95,West,271,3.1,4.9,78,0.00,,CLR,0.00,VWS V14.01,2013-02-18 07:20:00,
2013-02-18 00:25:00,17.2,11.6,29.95,West,271,2.2,4.9,78,0.00,,CLR,0.00,VWS V14.01,2013-02-18 07:25:00,
2013-02-18 00:30:00,16.5,10.9,29.95,West,271,3.1,4.9,78,0.00,,CLR,0.00,VWS V14.01,2013-02-18 07:30:00,
2013-02-18 00:35:00,16.5,10.9,29.95,SW,234,3.6,4.5,78,0.00,,CLR,0.00,VWS V14.01,2013-02-18 07:35:00,
2013-02-18 00:40:00,16.0,9.8,29.95,SW,235,3.1,4.5,76,0.00,,CLR,0.00,VWS V14.01,2013-02-18 07:40:00,
2013-02-18 00:45:00,16.5,10.6,29.95,WSW,252,4.0,4.9,77,0.00,,CLR,0.00,VWS V14.01,2013-02-18 07:45:00,
2013-02-18 00:50:00,16.2,9.4,29.95,West,270,3.1,4.9,74,0.00,,CLR,0.00,VWS V14.01,2013-02-18 07:50:00,
2013-02-18 00:55:00,16.9,11.8,29.95,NW,326,4.0,4.9,80,0.00,,CLR,0.00,VWS V14.01,2013-02-18 07:55:00,
2013-02-18 01:00:00,18.1,14.7,29.95,NW,315,4.9,5.4,86,0.00,,CLR,0.00,VWS V14.01,2013-02-18 08:00:00,
2013-02-18 01:05:00,18.9,15.1,29.95,NNW,328,4.9,5.4,85,0.00,,CLR,0.00,VWS V14.01,2013-02-18 08:05:00,
2013-02-18 01:10:00,18.7,14.1,29.95,NW,308,2.2,5.4,82,0.00,,CLR,0.00,VWS V14.01,2013-02-18 08:10:00,
2013-02-18 01:15:00,17.6,11.9,29.95,WSW,244,4.0,5.4,78,0.00,,CLR,0.00,VWS V14.01,2013-02-18 08:15:00,
2013-02-18 01:20:00,17.1,10.2,29.95,WSW,253,4.0,5.4,74,0.00,,CLR,0.00,VWS V14.01,2013-02-18 08:20:00,
2013-02-18 01:25:00,17.1,10.2,29.95,West,269,2.7,5.4,74,0.00,,CLR,0.00,VWS V14.01,2013-02-18 08:25:00,
2013-02-18 01:30:00,17.8,12.4,29.95,West,272,2.7,5.4,79,0.00,,CLR,0.00,VWS V14.01,2013-02-18 08:30:00,
2013-02-18 01:35:00,18.5,14.5,29.95,WNW,299,3.1,4.0,84,0.00,,CLR,0.00,VWS V14.01,2013-02-18 08:35:00,
2013-02-18 01:40:00,19.0,15.8,29.95,WNW,297,2.7,4.0,87,0.00,,CLR,0.00,VWS V14.01,2013-02-18 08:40:00,
2013-02-18 01:45:00,19.2,16.5,29.95,NW,312,3.1,4.0,89,0.00,,CLR,0.00,VWS V14.01,2013-02-18 08:45:00,
2013-02-18 01:50:00,19.6,16.9,29.95,NW,304,2.2,4.9,89,0.00,,CLR,0.00,VWS V14.01,2013-02-18 08:50:00,
2013-02-18 01:55:00,19.4,15.9,29.95,NW,312,0.0,5.4,86,0.00,,CLR,0.00,VWS V14.01,2013-02-18 08:55:00,
2013-02-18 02:00:00,19.2,15.5,29.95,NNE,19,4.9,5.4,85,0.00,,CLR,0.00,VWS V14.01,2013-02-18 09:00:00,
2013-02-18 02:05:00,19.4,16.2,29.98,North,0,2.7,4.0,87,0.00,,CLR,0.00,VWS V14.01,2013-02-18 09:05:00,
2013-02-18 02:10:00,19.6,16.9,29.98,NW,315,4.9,4.9,89,0.00,,CLR,0.00,VWS V14.01,2013-02-18 09:10:00,
2013-02-18 02:15:00,19.9,17.5,29.98,North,353,3.6,4.9,90,0.00,,CLR,0.00,VWS V14.01,2013-02-18 09:15:00,
2013-02-18 02:20:00,20.1,17.9,29.98,NNE,14,3.6,4.9,91,0.00,,CLR,0.00,VWS V14.01,2013-02-18 09:20:00,
2013-02-18 02:25:00,19.8,17.3,29.98,North,10,2.7,4.9,90,0.00,,CLR,0.00,VWS V14.01,2013-02-18 09:25:00,
2013-02-18 02:30:00,19.8,17.6,29.98,North,353,3.1,4.9,91,0.00,,CLR,0.00,VWS V14.01,2013-02-18 09:30:00,
2013-02-18 02:35:00,19.8,17.6,29.98,NNW,344,4.9,6.3,91,0.00,,CLR,0.00,VWS V14.01,2013-02-18 09:35:00,
2013-02-18 02:40:00,19.4,17.5,29.98,NNW,333,5.8,7.6,92,0.00,,CLR,0.00,VWS V14.01,2013-02-18 09:40:00,
2013-02-18 02:45:00,19.6,17.6,29.98,NW,326,5.8,8.1,92,0.00,,CLR,0.00,VWS V14.01,2013-02-18 09:45:00,
2013-02-18 02:50:00,19.6,17.6,29.98,NNW,332,6.3,8.1,92,0.00,,CLR,0.00,VWS V14.01,2013-02-18 09:50:00,
2013-02-18 02:55:00,19.4,17.5,29.98,NW,322,5.4,8.1,92,0.00,,CLR,0.00,VWS V14.01,2013-02-18 09:55:00,
2013-02-18 03:00:00,19.4,17.5,29.98,NW,314,6.3,8.1,92,0.00,,CLR,0.00,VWS V14.01,2013-02-18 10:00:00,
2013-02-18 03:05:00,19.6,17.6,29.98,NNW,329,5.8,6.3,92,0.00,,CLR,0.00,VWS V14.01,2013-02-18 10:05:00,
2013-02-18 03:10:00,19.4,17.7,29.98,NW,326,6.3,8.1,93,0.00,,CLR,0.00,VWS V14.01,2013-02-18 10:10:00,
2013-02-18 03:15:00,19.2,17.5,29.98,NNW,331,5.8,8.1,93,0.00,,CLR,0.00,VWS V14.01,2013-02-18 10:15:00,
2013-02-18 03:20:00,19.0,17.4,29.98,NNW,339,7.2,8.1,93,0.00,,CLR,0.00,VWS V14.01,2013-02-18 10:20:00,
2013-02-18 03:25:00,18.7,17.0,29.98,NW,325,8.7,9.6,93,0.00,,CLR,0.00,VWS V14.01,2013-02-18 10:25:00,
2013-02-18 03:30:00,19.0,17.6,29.98,NW,324,8.1,12.3,94,0.00,,CLR,0.00,VWS V14.01,2013-02-18 10:30:00,
2013-02-18 03:35:00,19.2,17.8,29.98,NW,324,8.7,11.0,94,0.00,,CLR,0.00,VWS V14.01,2013-02-18 10:35:00,
2013-02-18 03:40:00,19.6,18.1,29.98,NW,323,8.3,12.8,94,0.00,,CLR,0.00,VWS V14.01,2013-02-18 10:40:00,
2013-02-18 03:45:00,19.6,18.1,29.98,NNW,330,8.7,13.2,94,0.00,,CLR,0.00,VWS V14.01,2013-02-18 10:45:00,
2013-02-18 03:50:00,19.2,17.5,29.98,NW,314,11.0,13.2,93,0.00,,CLR,0.00,VWS V14.01,2013-02-18 10:50:00,
2013-02-18 03:55:00,19.0,17.4,29.98,NNW,330,7.2,13.2,93,0.00,,CLR,0.00,VWS V14.01,2013-02-18 10:55:00,
2013-02-18 04:00:00,18.5,16.6,29.98,NNW,329,5.4,13.2,92,0.00,,CLR,0.00,VWS V14.01,2013-02-18 11:00:00,
2013-02-18 04:05:00,18.7,16.8,29.98,NNW,333,8.3,8.3,92,0.00,,CLR,0.00,VWS V14.01,2013-02-18 11:05:00,
2013-02-18 04:10:00,18.9,16.9,29.98,NNW,334,6.3,9.6,92,0.00,,CLR,0.00,VWS V14.01,2013-02-18 11:10:00,
2013-02-18 04:15:00,19.6,17.6,29.98,NNW,332,8.7,11.0,92,0.00,,CLR,0.00,VWS V14.01,2013-02-18 11:15:00,
2013-02-18 04:20:00,19.8,17.8,29.98,NNW,327,10.5,12.3,92,0.00,,CLR,0.00,VWS V14.01,2013-02-18 11:20:00,
2013-02-18 04:25:00,19.8,17.8,29.98,NNW,333,11.9,12.3,92,0.00,,CLR,0.00,VWS V14.01,2013-02-18 11:25:00,
2013-02-18 04:30:00,19.9,18.0,29.98,NW,326,10.1,15.0,92,0.00,,CLR,0.00,VWS V14.01,2013-02-18 11:30:00,
2013-02-18 04:35:00,19.9,17.7,29.98,NNW,332,10.5,13.2,91,0.00,,CLR,0.00,VWS V14.01,2013-02-18 11:35:00,
2013-02-18 04:40:00,20.1,18.2,29.98,NW,315,8.3,14.5,92,0.00,,CLR,0.00,VWS V14.01,2013-02-18 11:40:00,
2013-02-18 04:45:00,20.1,18.2,29.98,NW,319,5.8,14.5,92,0.00,,CLR,0.00,VWS V14.01,2013-02-18 11:45:00,
2013-02-18 04:50:00,20.1,18.2,29.98,NNW,346,10.5,14.5,92,0.00,,CLR,0.00,VWS V14.01,2013-02-18 11:50:00,
2013-02-18 04:55:00,20.1,18.2,29.98,NNW,331,11.0,14.5,92,0.00,,CLR,0.00,VWS V14.01,2013-02-18 11:55:00,
2013-02-18 05:00:00,20.1,18.2,29.98,NNW,329,10.1,14.5,92,0.00,,CLR,0.00,VWS V14.01,2013-02-18 12:00:00,
2013-02-18 05:05:00,20.1,18.2,29.98,NNW,330,8.7,13.2,92,0.00,,CLR,0.00,VWS V14.01,2013-02-18 12:05:00,
2013-02-18 05:10:00,19.8,17.8,29.98,NNW,340,5.4,13.2,92,0.00,,CLR,0.00,VWS V14.01,2013-02-18 12:10:00,
2013-02-18 05:15:00,19.6,17.6,29.98,NNW,328,7.6,13.2,92,0.00,,CLR,0.00,VWS V14.01,2013-02-18 12:15:00,
2013-02-18 05:20:00,19.6,17.6,29.98,NNW,345,4.0,13.2,92,0.00,,CLR,0.00,VWS V14.01,2013-02-18 12:20:00,
2013-02-18 05:25:00,19.4,17.5,29.98,NNW,327,7.6,13.2,92,0.00,,CLR,0.00,VWS V14.01,2013-02-18 12:25:00,
2013-02-18 05:30:00,19.4,17.5,29.98,NW,326,6.7,13.2,92,0.00,,CLR,0.00,VWS V14.01,2013-02-18 12:30:00,
2013-02-18 05:35:00,19.4,17.5,30.01,NW,326,4.5,6.3,92,0.00,,CLR,0.00,VWS V14.01,2013-02-18 12:35:00,
2013-02-18 05:40:00,19.4,17.5,30.01,NW,324,7.6,7.6,92,0.00,,CLR,0.00,VWS V14.01,2013-02-18 12:40:00,
2013-02-18 05:45:00,19.6,17.6,30.01,NNW,338,5.4,8.7,92,0.00,,CLR,0.00,VWS V14.01,2013-02-18 12:45:00,
2013-02-18 05:50:00,19.8,17.8,30.01,NNW,337,5.8,8.7,92,0.00,,CLR,0.00,VWS V14.01,2013-02-18 12:50:00,
2013-02-18 05:55:00,19.8,17.8,30.01,NNW,330,5.4,8.7,92,0.00,,CLR,0.00,VWS V14.01,2013-02-18 12:55:00,
2013-02-18 06:00:00,19.8,17.8,30.01,NNW,328,4.9,8.7,92,0.00,,CLR,0.00,VWS V14.01,2013-02-18 13:00:00,
2013-02-18 06:05:00,19.8,17.8,30.01,NNW,341,5.8,6.3,92,0.00,,CLR,0.00,VWS V14.01,2013-02-18 13:05:00,
2013-02-18 06:10:00,19.6,17.4,30.01,NNW,338,5.4,6.3,91,0.00,,CLR,0.00,VWS V14.01,2013-02-18 13:10:00,
2013-02-18 06:15:00,19.4,17.5,30.01,NNW,341,5.8,6.3,92,0.00,,CLR,0.00,VWS V14.01,2013-02-18 13:15:00,
2013-02-18 06:20:00,19.0,16.9,30.01,NW,315,8.3,8.3,91,0.00,,CLR,0.00,VWS V14.01,2013-02-18 13:20:00,
2013-02-18 06:25:00,18.7,16.5,30.01,NW,326,4.9,8.3,91,0.00,,CLR,0.00,VWS V14.01,2013-02-18 13:25:00,
2013-02-18 06:31:00,18.1,16.0,30.01,NNW,346,6.3,8.3,91,0.00,,CLR,0.00,VWS V14.01,2013-02-18 13:31:00,
2013-02-18 06:36:00,17.8,15.4,30.01,NNW,346,5.8,8.1,90,0.00,,CLR,0.00,VWS V14.01,2013-02-18 13:36:00,
2013-02-18 06:41:00,17.6,15.2,30.01,NNW,338,3.6,8.1,90,0.00,,CLR,0.00,VWS V14.01,2013-02-18 13:41:00,
2013-02-18 06:46:00,17.4,15.0,30.01,NW,316,5.4,8.1,90,0.00,,CLR,0.00,VWS V14.01,2013-02-18 13:46:00,
2013-02-18 06:51:00,17.1,14.6,30.01,NNW,331,4.5,8.1,90,0.00,,CLR,0.00,VWS V14.01,2013-02-18 13:51:00,
2013-02-18 06:56:00,16.7,14.3,30.01,NNW,328,3.1,8.1,90,0.00,,CLR,0.00,VWS V14.01,2013-02-18 13:56:00,
2013-02-18 07:01:00,16.2,13.5,30.01,NW,317,2.7,2.7,89,0.00,,CLR,0.00,VWS V14.01,2013-02-18 14:01:00,
2013-02-18 07:06:00,14.9,12.0,30.01,SW,228,4.9,5.4,88,0.00,,CLR,0.00,VWS V14.01,2013-02-18 14:06:00,
2013-02-18 07:11:00,14.4,11.2,30.01,WSW,239,3.6,5.4,87,0.00,,CLR,0.00,VWS V14.01,2013-02-18 14:11:00,
2013-02-18 07:16:00,13.8,10.7,30.01,WSW,244,0.0,5.4,87,0.00,,CLR,0.00,VWS V14.01,2013-02-18 14:16:00,
2013-02-18 07:21:00,13.5,10.3,30.01,NNW,346,0.0,5.4,87,0.00,,CLR,0.00,VWS V14.01,2013-02-18 14:21:00,
2013-02-18 07:26:00,14.0,10.6,30.01,North,353,0.0,5.4,86,0.00,,CLR,0.00,VWS V14.01,2013-02-18 14:26:00,
2013-02-18 07:31:00,14.4,11.2,30.01,North,0,2.2,2.2,87,0.00,,CLR,0.00,VWS V14.01,2013-02-18 14:31:00,
2013-02-18 07:36:00,14.7,11.6,30.01,North,357,2.2,3.6,87,0.00,,CLR,0.00,VWS V14.01,2013-02-18 14:36:00,
2013-02-18 07:41:00,15.1,11.9,30.01,North,0,2.7,3.6,87,0.00,,CLR,0.00,VWS V14.01,2013-02-18 14:41:00,
2013-02-18 07:46:00,14.7,11.6,30.01,North,0,0.0,3.6,87,0.00,,CLR,0.00,VWS V14.01,2013-02-18 14:46:00,
2013-02-18 07:51:00,14.9,11.7,30.01,NNW,338,3.1,3.6,87,0.00,,CLR,0.00,VWS V14.01,2013-02-18 14:51:00,
2013-02-18 07:56:00,15.3,12.4,30.01,NW,323,0.0,3.6,88,0.00,,CLR,0.00,VWS V14.01,2013-02-18 14:56:00,
2013-02-18 08:01:00,16.0,13.1,30.01,NNW,340,0.0,0.0,88,0.00,,CLR,0.00,VWS V14.01,2013-02-18 15:01:00,
2013-02-18 08:06:00,16.9,14.2,30.01,North,6,2.7,3.6,89,0.00,,CLR,0.00,VWS V14.01,2013-02-18 15:06:00,
2013-02-18 08:11:00,17.1,14.4,30.01,North,3,3.1,4.0,89,0.00,,CLR,0.00,VWS V14.01,2013-02-18 15:11:00,
2013-02-18 08:16:00,17.1,14.4,30.01,NNW,341,3.1,4.0,89,0.00,,CLR,0.00,VWS V14.01,2013-02-18 15:16:00,
2013-02-18 08:21:00,17.4,14.7,30.01,NNW,342,4.0,5.4,89,0.00,,CLR,0.00,VWS V14.01,2013-02-18 15:21:00,
2013-02-18 08:26:00,17.2,14.6,30.01,NNW,348,3.6,5.8,89,0.00,,CLR,0.00,VWS V14.01,2013-02-18 15:26:00,
2013-02-18 08:31:00,17.6,14.9,30.01,NNW,329,5.4,6.3,89,0.00,,CLR,0.00,VWS V14.01,2013-02-18 15:31:00,
2013-02-18 08:36:00,17.2,14.3,30.04,North,5,4.0,6.3,88,0.00,,CLR,0.00,VWS V14.01,2013-02-18 15:36:00,
2013-02-18 08:41:00,17.6,14.9,30.04,North,5,4.0,6.3,89,0.00,,CLR,0.00,VWS V14.01,2013-02-18 15:41:00,
2013-02-18 08:46:00,17.6,14.9,30.04,North,353,2.7,6.3,89,0.00,,CLR,0.00,VWS V14.01,2013-02-18 15:46:00,
2013-02-18 08:52:00,17.8,14.8,30.04,North,353,3.6,6.3,88,0.00,,CLR,0.00,VWS V14.01,2013-02-18 15:52:00,
2013-02-18 08:56:00,18.1,15.2,30.04,NNW,344,4.0,6.3,88,0.00,,CLR,0.00,VWS V14.01,2013-02-18 15:56:00,
2013-02-18 09:01:00,18.7,15.7,30.04,NNW,335,2.7,3.1,88,0.00,,CLR,0.00,VWS V14.01,2013-02-18 16:01:00,
2013-02-18 09:06:00,18.9,15.9,30.04,North,0,2.7,4.0,88,0.00,,CLR,0.00,VWS V14.01,2013-02-18 16:06:00,
2013-02-18 09:11:00,19.8,16.8,30.04,North,11,4.0,4.0,88,0.00,,CLR,0.00,VWS V14.01,2013-02-18 16:11:00,
2013-02-18 09:16:00,19.4,16.4,30.04,North,0,4.0,6.3,88,0.00,,CLR,0.00,VWS V14.01,2013-02-18 16:16:00,
2013-02-18 09:21:00,20.3,17.3,30.04,North,5,3.1,6.3,88,0.00,,CLR,0.00,VWS V14.01,2013-02-18 16:21:00,
2013-02-18 09:26:00,20.8,17.9,30.04,NNE,13,2.7,6.3,88,0.00,,CLR,0.00,VWS V14.01,2013-02-18 16:26:00,
2013-02-18 09:31:00,21.0,18.0,30.04,NNE,15,2.2,2.7,88,0.00,,CLR,0.00,VWS V14.01,2013-02-18 16:31:00,
2013-02-18 09:36:00,21.4,18.4,30.04,NNE,21,3.1,3.6,88,0.00,,CLR,0.00,VWS V14.01,2013-02-18 16:36:00,
2013-02-18 09:41:00,21.9,18.6,30.04,NNW,343,3.1,4.0,87,0.00,,CLR,0.00,VWS V14.01,2013-02-18 16:41:00,
2013-02-18 09:46:00,20.7,16.9,30.04,North,5,3.6,5.8,85,0.00,,CLR,0.00,VWS V14.01,2013-02-18 16:46:00,
2013-02-18 09:52:00,21.0,16.7,30.04,North,0,2.2,5.8,83,0.00,,CLR,0.00,VWS V14.01,2013-02-18 16:52:00,
2013-02-18 09:57:00,22.3,18.5,30.04,NNE,19,2.7,5.8,85,0.00,,CLR,0.00,VWS V14.01,2013-02-18 16:57:00,
2013-02-18 10:02:00,23.0,19.5,30.04,North,6,2.7,4.0,86,0.00,,CLR,0.00,VWS V14.01,2013-02-18 17:02:00,
2013-02-18 10:07:00,22.8,19.0,30.04,NNE,31,2.7,4.0,85,0.00,,CLR,0.00,VWS V14.01,2013-02-18 17:07:00,
2013-02-18 10:12:00,23.0,18.3,30.04,NE,37,4.9,4.9,82,0.00,,CLR,0.00,VWS V14.01,2013-02-18 17:12:00,
2013-02-18 10:17:00,23.0,18.0,30.04,North,357,4.0,4.9,81,0.00,,CLR,0.00,VWS V14.01,2013-02-18 17:17:00,
2013-02-18 10:22:00,22.6,17.7,30.04,NNE,24,3.1,4.9,81,0.00,,CLR,0.00,VWS V14.01,2013-02-18 17:22:00,
2013-02-18 10:27:00,23.0,17.8,30.04,ENE,70,2.2,4.9,80,0.00,,CLR,0.00,VWS V14.01,2013-02-18 17:27:00,
2013-02-18 10:32:00,22.8,16.4,30.04,ENE,59,2.7,4.0,76,0.00,,CLR,0.00,VWS V14.01,2013-02-18 17:32:00,
2013-02-18 10:37:00,22.6,15.3,30.04,East,84,3.6,4.0,73,0.00,,CLR,0.00,VWS V14.01,2013-02-18 17:37:00,
2013-02-18 10:42:00,23.5,16.2,30.04,East,79,0.0,4.0,73,0.00,,CLR,0.00,VWS V14.01,2013-02-18 17:42:00,
2013-02-18 10:47:00,24.1,14.0,30.04,SSE,156,2.7,4.0,65,0.00,,CLR,0.00,VWS V14.01,2013-02-18 17:47:00,
2013-02-18 10:52:00,26.8,15.9,30.04,ESE,114,2.7,4.0,63,0.00,,CLR,0.00,VWS V14.01,2013-02-18 17:52:00,
2013-02-18 10:57:00,29.8,20.6,30.04,ESE,107,2.7,4.0,68,0.00,,CLR,0.00,VWS V14.01,2013-02-18 17:57:00,
2013-02-18 11:02:00,29.1,18.5,30.04,North,353,2.7,2.7,64,0.00,,CLR,0.00,VWS V14.01,2013-02-18 18:02:00,
2013-02-18 11:07:00,26.8,16.2,30.04,NNW,340,0.0,3.1,64,0.00,,CLR,0.00,VWS V14.01,2013-02-18 18:07:00,
2013-02-18 11:12:00,26.8,16.6,30.04,North,353,2.7,3.1,65,0.00,,CLR,0.00,VWS V14.01,2013-02-18 18:12:00,
2013-02-18 11:17:00,30.2,17.2,30.04,North,1,4.0,4.0,58,0.00,,CLR,0.00,VWS V14.01,2013-02-18 18:17:00,
2013-02-18 11:22:00,29.7,15.1,30.04,North,10,2.7,4.9,54,0.00,,CLR,0.00,VWS V14.01,2013-02-18 18:22:00,
2013-02-18 11:27:00,30.7,14.8,30.04,NNE,23,3.1,5.8,51,0.00,,CLR,0.00,VWS V14.01,2013-02-18 18:27:00,
2013-02-18 11:32:00,28.6,11.9,30.04,North,357,3.6,6.3,49,0.00,,CLR,0.00,VWS V14.01,2013-02-18 18:32:00,
2013-02-18 11:37:00,23.7,9.5,30.04,North,4,5.4,6.3,54,0.00,,CLR,0.00,VWS V14.01,2013-02-18 18:37:00,
2013-02-18 11:42:00,21.9,10.2,30.04,North,353,5.4,6.3,60,0.00,,CLR,0.00,VWS V14.01,2013-02-18 18:42:00,
2013-02-18 11:47:00,23.4,11.5,30.04,NNE,13,5.8,7.2,60,0.00,,CLR,0.00,VWS V14.01,2013-02-18 18:47:00,
2013-02-18 11:52:00,23.5,10.9,30.04,NNE,25,5.8,7.2,58,0.00,,CLR,0.00,VWS V14.01,2013-02-18 18:52:00,
2013-02-18 11:57:00,24.3,11.6,30.04,NNE,28,5.8,7.2,58,0.00,,CLR,0.00,VWS V14.01,2013-02-18 18:57:00,
2013-02-18 12:02:00,25.9,11.9,30.04,NE,35,6.3,6.3,55,0.00,,CLR,0.00,VWS V14.01,2013-02-18 19:02:00,
2013-02-18 12:07:00,24.6,10.8,30.04,NE,52,3.6,6.3,55,0.00,,CLR,0.00,VWS V14.01,2013-02-18 19:07:00,
2013-02-18 12:12:00,25.0,10.7,30.04,ENE,57,4.0,6.3,54,0.00,,CLR,0.00,VWS V14.01,2013-02-18 19:12:00,
2013-02-18 12:17:00,25.3,10.2,30.04,ENE,58,3.1,6.3,52,0.00,,CLR,0.00,VWS V14.01,2013-02-18 19:17:00,
2013-02-18 12:22:00,24.4,9.8,30.04,NE,38,3.6,6.3,53,0.00,,CLR,0.00,VWS V14.01,2013-02-18 19:22:00,
2013-02-18 12:27:00,27.9,12.5,30.04,NE,47,2.7,6.3,52,0.00,,CLR,0.00,VWS V14.01,2013-02-18 19:27:00,
2013-02-18 12:32:00,28.6,11.4,30.04,ENE,64,4.0,4.0,48,0.00,,CLR,0.00,VWS V14.01,2013-02-18 19:32:00,
2013-02-18 12:37:00,26.8,9.7,30.04,ENE,68,3.6,4.0,48,0.00,,CLR,0.00,VWS V14.01,2013-02-18 19:37:00,
2013-02-18 12:42:00,28.6,10.9,30.04,ENE,68,0.0,4.0,47,0.00,,CLR,0.00,VWS V14.01,2013-02-18 19:42:00,
2013-02-18 12:47:00,27.9,9.8,30.01,NE,42,3.1,4.0,46,0.00,,CLR,0.00,VWS V14.01,2013-02-18 19:47:00,
2013-02-18 12:52:00,25.9,9.4,30.01,North,357,2.7,4.9,49,0.00,,CLR,0.00,VWS V14.01,2013-02-18 19:52:00,
2013-02-18 12:57:00,25.7,10.5,30.01,NE,38,2.7,4.9,52,0.00,,CLR,0.00,VWS V14.01,2013-02-18 19:57:00,
2013-02-18 13:02:00,25.3,9.8,30.01,ESE,103,3.6,3.6,51,0.00,,CLR,0.00,VWS V14.01,2013-02-18 20:02:00,
2013-02-18 13:07:00,25.7,10.5,30.01,ESE,112,3.6,3.6,52,0.00,,CLR,0.00,VWS V14.01,2013-02-18 20:07:00,
2013-02-18 13:12:00,26.4,11.2,30.01,East,86,2.7,6.3,52,0.00,,CLR,0.00,VWS V14.01,2013-02-18 20:12:00,
2013-02-18 13:17:00,26.4,10.8,30.01,East,100,2.7,6.3,51,0.00,,CLR,0.00,VWS V14.01,2013-02-18 20:17:00,
2013-02-18 13:22:00,27.5,10.9,30.01,NE,44,3.6,6.3,49,0.00,,CLR,0.00,VWS V14.01,2013-02-18 20:22:00,
2013-02-18 13:27:00,26.8,9.7,30.01,NE,36,3.6,6.3,48,0.00,,CLR,0.00,VWS V14.01,2013-02-18 20:27:00,
2013-02-18 13:32:00,27.3,11.1,30.01,NE,51,2.2,4.9,50,0.00,,CLR,0.00,VWS V14.01,2013-02-18 20:32:00,
2013-02-18 13:37:00,26.1,10.4,30.01,NE,40,2.7,5.4,51,0.00,,CLR,0.00,VWS V14.01,2013-02-18 20:37:00,
2013-02-18 13:42:00,25.9,10.7,30.01,NE,53,2.7,5.4,52,0.00,,CLR,0.00,VWS V14.01,2013-02-18 20:42:00,
2013-02-18 13:47:00,26.2,11.4,30.01,ENE,66,2.7,5.4,53,0.00,,CLR,0.00,VWS V14.01,2013-02-18 20:47:00,
2013-02-18 13:52:00,26.4,10.8,30.01,East,97,2.7,5.4,51,0.00,,CLR,0.00,VWS V14.01,2013-02-18 20:52:00,
2013-02-18 13:57:00,25.9,9.8,30.01,ENE,59,2.7,5.4,50,0.00,,CLR,0.00,VWS V14.01,2013-02-18 20:57:00,
2013-02-18 14:02:00,26.1,10.4,30.01,East,81,3.1,3.1,51,0.00,,CLR,0.00,VWS V14.01,2013-02-18 21:02:00,
2013-02-18 14:07:00,26.8,11.1,30.01,SE,125,4.5,4.5,51,0.00,,CLR,0.00,VWS V14.01,2013-02-18 21:07:00,
2013-02-18 14:13:00,27.1,11.4,30.01,ENE,62,2.7,5.4,51,0.00,,CLR,0.00,VWS V14.01,2013-02-18 21:13:00,
2013-02-18 14:18:00,26.6,10.9,30.01,ENE,78,3.1,5.4,51,0.00,,CLR,0.00,VWS V14.01,2013-02-18 21:18:00,
2013-02-18 14:23:00,26.4,11.2,30.01,East,85,0.0,5.4,52,0.00,,CLR,0.00,VWS V14.01,2013-02-18 21:23:00,
2013-02-18 14:28:00,27.0,11.3,30.01,SE,128,0.0,5.4,51,0.00,,CLR,0.00,VWS V14.01,2013-02-18 21:28:00,
2013-02-18 14:33:00,28.8,11.1,30.01,SE,128,0.0,2.2,47,0.00,,CLR,0.00,VWS V14.01,2013-02-18 21:33:00,
2013-02-18 14:38:00,28.8,10.1,30.01,SE,128,0.0,2.2,45,0.00,,CLR,0.00,VWS V14.01,2013-02-18 21:38:00,
2013-02-18 14:43:00,27.9,9.8,30.01,East,80,2.7,4.0,46,0.00,,CLR,0.00,VWS V14.01,2013-02-18 21:43:00,
2013-02-18 14:48:00,30.9,11.1,30.01,ENE,61,0.0,5.8,43,0.00,,CLR,0.00,VWS V14.01,2013-02-18 21:48:00,
2013-02-18 14:53:00,31.8,11.4,30.01,East,101,0.0,5.8,42,0.00,,CLR,0.00,VWS V14.01,2013-02-18 21:53:00,
2013-02-18 14:58:00,32.9,11.8,30.01,East,99,2.2,5.8,41,0.00,,CLR,0.00,VWS V14.01,2013-02-18 21:58:00,
2013-02-18 15:03:00,31.1,10.2,30.01,ESE,105,3.6,4.0,41,0.00,,CLR,0.00,VWS V14.01,2013-02-18 22:03:00,
2013-02-18 15:08:00,31.8,10.3,30.01,East,101,2.7,4.0,40,0.00,,CLR,0.00,VWS V14.01,2013-02-18 22:08:00,
2013-02-18 15:13:00,33.3,11.6,30.01,East,100,2.7,4.0,40,0.00,,CLR,0.00,VWS V14.01,2013-02-18 22:13:00,
2013-02-18 15:18:00,34.2,11.2,30.01,East,100,2.7,4.0,38,0.00,,CLR,0.00,VWS V14.01,2013-02-18 22:18:00,
2013-02-18 15:23:00,30.7,9.3,30.01,East,98,4.9,4.9,40,0.00,,CLR,0.00,VWS V14.01,2013-02-18 22:23:00,
2013-02-18 15:28:00,29.3,8.5,30.01,South,172,5.4,7.2,41,0.00,,CLR,0.00,VWS V14.01,2013-02-18 22:28:00,
2013-02-18 15:33:00,28.2,8.1,30.01,ESE,105,4.0,4.0,42,0.00,,CLR,0.00,VWS V14.01,2013-02-18 22:33:00,
2013-02-18 15:38:00,29.1,8.9,30.01,SE,143,3.6,5.8,42,0.00,,CLR,0.00,VWS V14.01,2013-02-18 22:38:00,
2013-02-18 15:43:00,28.0,8.9,30.01,SSE,154,4.0,6.7,44,0.00,,CLR,0.00,VWS V14.01,2013-02-18 22:43:00,
2013-02-18 15:48:00,27.0,8.5,30.01,SE,127,4.9,6.7,45,0.00,,CLR,0.00,VWS V14.01,2013-02-18 22:48:00,
2013-02-18 15:53:00,27.5,9.4,30.01,SSE,158,4.0,6.7,46,0.00,,CLR,0.00,VWS V14.01,2013-02-18 22:53:00,
2013-02-18 15:58:00,26.8,9.3,30.01,SE,136,4.0,6.7,47,0.00,,CLR,0.00,VWS V14.01,2013-02-18 22:58:00,
2013-02-18 16:03:00,26.8,9.3,30.01,ESE,108,3.6,4.9,47,0.00,,CLR,0.00,VWS V14.01,2013-02-18 23:03:00,
2013-02-18 16:08:00,25.2,9.1,30.01,ESE,118,6.3,6.3,50,0.00,,CLR,0.00,VWS V14.01,2013-02-18 23:08:00,
2013-02-18 16:13:00,25.9,10.7,30.01,SE,142,5.4,7.6,52,0.00,,CLR,0.00,VWS V14.01,2013-02-18 23:13:00,
2013-02-18 16:18:00,25.2,10.4,29.98,ESE,109,5.4,7.6,53,0.00,,CLR,0.00,VWS V14.01,2013-02-18 23:18:00,
2013-02-18 16:23:00,26.1,11.3,29.98,ESE,106,5.4,7.6,53,0.00,,CLR,0.00,VWS V14.01,2013-02-18 23:23:00,
2013-02-18 16:28:00,25.3,10.6,29.98,SE,137,5.4,7.6,53,0.00,,CLR,0.00,VWS V14.01,2013-02-18 23:28:00,
2013-02-18 16:34:00,26.4,11.6,29.98,ESE,106,4.0,5.8,53,0.00,,CLR,0.00,VWS V14.01,2013-02-18 23:34:00,
2013-02-18 16:39:00,24.1,10.7,29.98,East,101,5.8,6.3,56,0.00,,CLR,0.00,VWS V14.01,2013-02-18 23:39:00,
2013-02-18 16:44:00,23.5,12.4,29.98,ESE,118,5.8,6.3,62,0.00,,CLR,0.00,VWS V14.01,2013-02-18 23:44:00,
2013-02-18 16:49:00,22.8,13.5,30.01,SE,127,4.0,6.3,67,0.00,,CLR,0.00,VWS V14.01,2013-02-18 23:49:00,
2013-02-18 16:54:00,22.8,13.9,30.01,SE,136,2.7,6.3,68,0.00,,CLR,0.00,VWS V14.01,2013-02-18 23:54:00,
2013-02-18 16:59:00,23.0,14.4,30.01,SE,136,2.7,6.3,69,0.00,,CLR,0.00,VWS V14.01,2013-02-18 23:59:00,
2013-02-18 17:04:00,22.5,13.8,29.98,SE,146,4.0,4.9,69,0.00,,CLR,0.00,VWS V14.01,2013-02-19 00:04:00,
2013-02-18 17:09:00,22.5,14.2,29.98,SE,134,2.7,4.9,70,0.00,,CLR,0.00,VWS V14.01,2013-02-19 00:09:00,
2013-02-18 17:14:00,21.9,13.6,29.98,SE,141,3.6,4.9,70,0.00,,CLR,0.00,VWS V14.01,2013-02-19 00:14:00,
2013-02-18 17:19:00,21.9,14.3,29.98,SSE,159,5.4,5.8,72,0.00,,CLR,0.00,VWS V14.01,2013-02-19 00:19:00,
2013-02-18 17:24:00,21.6,13.9,29.98,SSE,147,3.6,6.3,72,0.00,,CLR,0.00,VWS V14.01,2013-02-19 00:24:00,
2013-02-18 17:29:00,21.4,14.1,29.98,SE,127,3.1,6.3,73,0.00,,CLR,0.00,VWS V14.01,2013-02-19 00:29:00,
2013-02-18 17:34:00,21.0,14.4,29.98,ESE,117,4.0,5.4,75,0.00,,CLR,0.00,VWS V14.01,2013-02-19 00:34:00,
2013-02-18 17:39:00,20.7,14.3,29.98,SE,126,6.3,7.6,76,0.00,,CLR,0.00,VWS V14.01,2013-02-19 00:39:00,
2013-02-18 17:44:00,20.5,14.4,29.98,SE,145,6.3,9.2,77,0.00,,CLR,0.00,VWS V14.01,2013-02-19 00:44:00,
2013-02-18 17:49:00,20.3,14.3,29.98,SE,141,7.6,9.2,77,0.00,,CLR,0.00,VWS V14.01,2013-02-19 00:49:00,
2013-02-18 17:54:00,20.1,14.1,29.98,SE,126,6.3,9.2,77,0.00,,CLR,0.00,VWS V14.01,2013-02-19 00:54:00,
2013-02-18 17:59:00,19.8,13.1,29.98,SE,146,5.4,9.2,75,0.00,,CLR,0.00,VWS V14.01,2013-02-19 00:59:00,
2013-02-18 18:04:00,19.4,13.1,29.98,SE,139,5.4,5.4,76,0.00,,CLR,0.00,VWS V14.01,2013-02-19 01:04:00,
2013-02-18 18:09:00,19.4,13.4,29.98,ESE,112,6.3,6.3,77,0.00,,CLR,0.00,VWS V14.01,2013-02-19 01:09:00,
2013-02-18 18:14:00,19.0,13.0,29.98,SSE,166,4.0,8.7,77,0.00,,CLR,0.00,VWS V14.01,2013-02-19 01:14:00,
2013-02-18 18:19:00,17.8,12.1,29.98,SSW,211,6.3,8.7,78,0.00,,CLR,0.00,VWS V14.01,2013-02-19 01:19:00,
2013-02-18 18:24:00,15.4,9.8,29.98,SSW,213,4.9,8.7,78,0.00,,CLR,0.00,VWS V14.01,2013-02-19 01:24:00,
2013-02-18 18:29:00,13.8,8.0,29.98,SW,226,6.3,8.7,77,0.00,,CLR,0.00,VWS V14.01,2013-02-19 01:29:00,
2013-02-18 18:34:00,13.6,7.8,29.98,SW,233,6.3,8.1,77,0.00,,CLR,0.00,VWS V14.01,2013-02-19 01:34:00,
2013-02-18 18:39:00,12.9,7.1,29.98,WSW,242,5.4,8.1,77,0.00,,CLR,0.00,VWS V14.01,2013-02-19 01:39:00,
2013-02-18 18:44:00,12.9,7.1,29.98,West,267,7.6,8.3,77,0.00,,CLR,0.00,VWS V14.01,2013-02-19 01:44:00,
2013-02-18 18:49:00,12.0,6.2,29.95,SW,228,4.0,8.3,77,0.00,,CLR,0.00,VWS V14.01,2013-02-19 01:49:00,
2013-02-18 18:54:00,12.0,6.2,29.95,SSW,204,5.4,8.3,77,0.00,,CLR,0.00,VWS V14.01,2013-02-19 01:54:00,
2013-02-18 18:59:00,13.6,7.8,29.95,South,185,4.0,8.3,77,0.00,,CLR,0.00,VWS V14.01,2013-02-19 01:59:00,
2013-02-18 19:04:00,13.8,7.4,29.95,South,180,4.0,4.5,75,0.00,,CLR,0.00,VWS V14.01,2013-02-19 02:04:00,
2013-02-18 19:09:00,14.0,7.2,29.95,South,171,4.0,4.9,74,0.00,,CLR,0.00,VWS V14.01,2013-02-19 02:09:00,
2013-02-18 19:14:00,13.6,7.5,29.95,South,170,3.1,4.9,76,0.00,,CLR,0.00,VWS V14.01,2013-02-19 02:14:00,
2013-02-18 19:19:00,12.4,6.3,29.95,SSE,148,3.6,4.9,76,0.00,,CLR,0.00,VWS V14.01,2013-02-19 02:19:00,
2013-02-18 19:25:00,13.6,7.5,29.95,South,173,4.0,6.3,76,0.00,,CLR,0.00,VWS V14.01,2013-02-19 02:25:00,
2013-02-18 19:30:00,11.5,5.4,29.95,SSW,210,4.0,6.3,76,0.00,,CLR,0.00,VWS V14.01,2013-02-19 02:30:00,
2013-02-18 19:35:00,10.8,4.7,29.95,SW,217,4.5,4.9,76,0.00,,CLR,0.00,VWS V14.01,2013-02-19 02:35:00,
2013-02-18 19:40:00,11.7,5.6,29.95,SSE,168,3.1,4.9,76,0.00,,CLR,0.00,VWS V14.01,2013-02-19 02:40:00,
2013-02-18 19:45:00,12.0,5.9,29.95,South,189,4.9,5.4,76,0.00,,CLR,0.00,VWS V14.01,2013-02-19 02:45:00,
2013-02-18 19:50:00,13.1,7.0,29.95,South,169,4.0,5.4,76,0.00,,CLR,0.00,VWS V14.01,2013-02-19 02:50:00,
2013-02-18 19:55:00,13.6,6.6,29.95,SSE,152,5.4,7.6,73,0.00,,CLR,0.00,VWS V14.01,2013-02-19 02:55:00,
2013-02-18 20:00:00,12.9,5.9,29.95,SSE,164,3.1,7.6,73,0.00,,CLR,0.00,VWS V14.01,2013-02-19 03:00:00,
2013-02-18 20:05:00,12.6,5.6,29.95,South,187,4.9,5.8,73,0.00,,CLR,0.00,VWS V14.01,2013-02-19 03:05:00,
2013-02-18 20:10:00,13.3,6.3,29.95,SSE,166,6.3,6.3,73,0.00,,CLR,0.00,VWS V14.01,2013-02-19 03:10:00,
2013-02-18 20:15:00,12.7,5.7,29.95,SSW,192,2.7,6.3,73,0.00,,CLR,0.00,VWS V14.01,2013-02-19 03:15:00,
2013-02-18 20:20:00,12.9,5.9,29.95,SSE,158,4.0,6.3,73,0.00,,CLR,0.00,VWS V14.01,2013-02-19 03:20:00,
2013-02-18 20:25:00,12.4,5.4,29.95,South,181,3.6,6.3,73,0.00,,CLR,0.00,VWS V14.01,2013-02-19 03:25:00,
2013-02-18 20:30:00,11.8,4.9,29.95,South,186,5.4,6.3,73,0.00,,CLR,0.00,VWS V14.01,2013-02-19 03:30:00,
2013-02-18 20:35:00,10.8,3.8,29.95,SW,217,4.9,6.3,73,0.00,,CLR,0.00,VWS V14.01,2013-02-19 03:35:00,
2013-02-18 20:40:00,9.5,2.6,29.95,WSW,237,5.4,6.3,73,0.00,,CLR,0.00,VWS V14.01,2013-02-19 03:40:00,
2013-02-18 20:45:00,9.0,2.1,29.95,SW,222,6.3,6.7,73,0.00,,CLR,0.00,VWS V14.01,2013-02-19 03:45:00,
2013-02-18 20:50:00,11.7,4.7,29.95,South,187,2.7,6.7,73,0.00,,CLR,0.00,VWS V14.01,2013-02-19 03:50:00,
2013-02-18 20:55:00,12.9,5.9,29.95,SSE,155,4.0,6.7,73,0.00,,CLR,0.00,VWS V14.01,2013-02-19 03:55:00,
2013-02-18 21:00:00,12.7,5.7,29.95,South,170,4.5,6.7,73,0.00,,CLR,0.00,VWS V14.01,2013-02-19 04:00:00,
2013-02-18 21:05:00,11.3,4.3,29.95,SSW,212,7.6,8.1,73,0.00,,CLR,0.00,VWS V14.01,2013-02-19 04:05:00,
2013-02-18 21:10:00,10.9,4.0,29.95,SW,221,7.6,8.3,73,0.00,,CLR,0.00,VWS V14.01,2013-02-19 04:10:00,
2013-02-18 21:15:00,11.7,4.7,29.95,SW,219,5.4,8.3,73,0.00,,CLR,0.00,VWS V14.01,2013-02-19 04:15:00,
2013-02-18 21:20:00,11.8,4.9,29.95,SE,138,4.5,8.3,73,0.00,,CLR,0.00,VWS V14.01,2013-02-19 04:20:00,
2013-02-18 21:25:00,12.0,5.0,29.95,South,180,6.7,8.3,73,0.00,,CLR,0.00,VWS V14.01,2013-02-19 04:25:00,
2013-02-18 21:31:00,12.2,5.2,29.95,SSE,162,5.8,8.3,73,0.00,,CLR,0.00,VWS V14.01,2013-02-19 04:31:00,
2013-02-18 21:36:00,12.6,5.6,29.95,South,188,5.8,6.3,73,0.00,,CLR,0.00,VWS V14.01,2013-02-19 04:36:00,
2013-02-18 21:41:00,11.8,4.9,29.95,SSW,194,6.3,6.3,73,0.00,,CLR,0.00,VWS V14.01,2013-02-19 04:41:00,
2013-02-18 21:46:00,11.1,4.2,29.95,SSW,192,6.3,6.7,73,0.00,,CLR,0.00,VWS V14.01,2013-02-19 04:46:00,
2013-02-18 21:51:00,10.8,3.8,29.95,SSW,203,5.8,8.3,73,0.00,,CLR,0.00,VWS V14.01,2013-02-19 04:51:00,
2013-02-18 21:56:00,11.3,4.3,29.95,SSW,195,4.0,8.3,73,0.00,,CLR,0.00,VWS V14.01,2013-02-19 04:56:00,
2013-02-18 22:00:00,11.3,4.3,29.95,SSW,194,4.9,8.3,73,0.00,,CLR,0.00,VWS V14.01,2013-02-19 05:00:00,
2013-02-18 22:01:00,11.3,4.3,29.95,SSW,197,4.9,8.3,73,0.00,,CLR,0.00,VWS V14.01,2013-02-19 05:01:00,
2013-02-18 22:06:00,11.3,4.3,29.95,SSE,167,4.0,5.4,73,0.00,,CLR,0.00,VWS V14.01,2013-02-19 05:06:00,
2013-02-18 22:11:00,11.8,4.9,29.95,SSE,165,4.0,5.4,73,0.00,,CLR,0.00,VWS V14.01,2013-02-19 05:11:00,
2013-02-18 22:16:00,11.3,4.3,29.95,SSW,197,5.4,6.3,73,0.00,,CLR,0.00,VWS V14.01,2013-02-19 05:16:00,
2013-02-18 22:21:00,9.7,2.8,29.95,SW,221,5.4,6.3,73,0.00,,CLR,0.00,VWS V14.01,2013-02-19 05:21:00,
2013-02-18 22:25:00,9.9,3.0,29.95,SW,225,6.3,8.3,73,0.00,,CLR,0.00,VWS V14.01,2013-02-19 05:25:00,
2013-02-18 22:31:00,10.8,3.8,29.95,South,191,6.3,8.3,73,0.00,,CLR,0.00,VWS V14.01,2013-02-19 05:31:00,
2013-02-18 22:36:00,10.4,3.5,29.95,SSW,206,4.9,5.8,73,0.00,,CLR,0.00,VWS V14.01,2013-02-19 05:36:00,
2013-02-18 22:41:00,10.0,3.1,29.95,SSE,161,4.0,5.8,73,0.00,,CLR,0.00,VWS V14.01,2013-02-19 05:41:00,
2013-02-18 22:46:00,9.3,2.4,29.95,SSW,199,4.0,5.8,73,0.00,,CLR,0.00,VWS V14.01,2013-02-19 05:46:00,
2013-02-18 22:51:00,8.4,1.6,29.95,SSW,203,2.7,5.8,73,0.00,,CLR,0.00,VWS V14.01,2013-02-19 05:51:00,
2013-02-18 22:56:00,8.1,1.2,29.95,SW,235,4.5,5.8,73,0.00,,CLR,0.00,VWS V14.01,2013-02-19 05:56:00,
2013-02-18 23:01:00,8.1,1.2,29.95,SW,217,2.7,5.8,73,0.00,,CLR,0.00,VWS V14.01,2013-02-19 06:01:00,
2013-02-18 23:06:00,7.7,0.9,29.92,SW,234,2.7,3.6,73,0.00,,CLR,0.00,VWS V14.01,2013-02-19 06:06:00,
2013-02-18 23:11:00,6.8,0.0,29.92,SW,234,0.0,3.6,73,0.00,,CLR,0.00,VWS V14.01,2013-02-19 06:11:00,
2013-02-18 23:16:00,7.0,0.2,29.92,SW,234,0.0,3.6,73,0.00,,CLR,0.00,VWS V14.01,2013-02-19 06:16:00,
2013-02-18 23:21:00,7.9,1.0,29.92,SSE,151,5.4,5.4,73,0.00,,CLR,0.00,VWS V14.01,2013-02-19 06:21:00,
2013-02-18 23:26:00,8.2,1.4,29.92,South,184,4.0,5.4,73,0.00,,CLR,0.00,VWS V14.01,2013-02-19 06:26:00,
2013-02-18 23:31:00,9.1,2.3,29.92,South,172,4.5,5.8,73,0.00,,CLR,0.00,VWS V14.01,2013-02-19 06:31:00,
2013-02-18 23:36:00,10.8,3.8,29.95,SSE,163,5.4,7.2,73,0.00,,CLR,0.00,VWS V14.01,2013-02-19 06:36:00,
2013-02-18 23:41:00,11.8,4.9,29.95,South,185,6.3,7.6,73,0.00,,CLR,0.00,VWS V14.01,2013-02-19 06:41:00,
2013-02-18 23:46:00,10.9,4.0,29.95,SSW,200,5.4,7.6,73,0.00,,CLR,0.00,VWS V14.01,2013-02-19 06:46:00,
2013-02-18 23:50:00,10.2,3.3,29.95,SSW,205,8.7,8.7,73,0.00,,CLR,0.00,VWS V14.01,2013-02-19 06:50:00,
2013-02-18 23:55:00,11.7,4.7,29.95,SE,145,5.8,12.3,73,0.00,,CLR,0.00,VWS V14.01,2013-02-19 06:55:00,